Regional Weather Roundup
Issued by NWS Albany, NY

Home | Current Version | Previous Version | Graphics & Text | Print | Product List | Glossary On
Versions: 1 2 3 4 5 6 7 8 9 10 11 12 13 14 15 16 17 18 19 20 21 22 23 24 25 26 27 28 29 30 31 32 33 34 35 36 37 38 39 40 41 42 43 44 45 46 47 48 49 50
000
ASUS41 KALY 231710
RWRALY

NEW YORK STATE HOURLY WEATHER ROUNDUP
NATIONAL WEATHER SERVICE ALBANY NY
1200 PM EST THU FEB 23 2017

NOTE: "FAIR" INDICATES FEW OR NO CLOUDS BELOW 12,000 FEET WITH NO
SIGNIFICANT WEATHER AND/OR NO OBSTRUCTIONS TO VISIBILITY.

NYZ032-033-038>043-046>054-057>066-NYZ062>081-082-084-231800-
EAST


CITY           SKY/WX    TMP DP  RH WIND       PRES   REMARKS
ALBANY         MOSUNNY   60  42  51 S20       29.75F
GLENS FALLS    SUNNY     59  41  51 SW12      29.73F
POUGHKEEPSIE   SUNNY     61  45  55 SW7       29.81F
NEWBURGH       SUNNY     64  52  63 CALM      29.83F
MONTGOMERY     SUNNY     64  50  60 SW10      29.80F
WHITE PLAINS   MOSUNNY   55  46  71 S8        29.85F HAZE
ISLIP          CLOUDY    51  47  86 S7        29.87F
NEW YORK CITY  CLOUDY    56  49  77 SW12      29.88F
CENTRAL PARK   CLOUDY    53  48  83 W9        29.90F
$$

NYZ005>009-017-018-044>046-055-056-231800-
CENTRAL


CITY           SKY/WX    TMP DP  RH WIND       PRES   REMARKS
FULTON         PTSUNNY   63  51  65 SW16G25   29.65F
SYRACUSE       MOSUNNY   66  50  56 SW16G29   29.66F
ROME           CLOUDY    62  49  62 SW13      29.70F
ELMIRA         CLOUDY    64  51  62 SW17G24   29.74F
BINGHAMTON     CLOUDY    58  47  66 SW15      29.77F
MONTICELLO     SUNNY     61  48  63 SW8       29.83F
$$

NYZ026>034-041>043-087-231800-
NORTH


CITY           SKY/WX    TMP DP  RH WIND       PRES   REMARKS
WATERTOWN      CLOUDY    59  50  72 S14G25    29.61F
FORT DRUM      NOT AVBL
OGDENSBURG     CLOUDY    54  49  84 S12       29.59S
MASSENA        CLOUDY    57  49  74 SW17      29.58S
SARANAC LAKE   LGT RAIN  56  42  59 SW24G31   29.60F
PLATTSBURGH    SUNNY     56  40  55 SE14      29.60F
$$

NYZ001>004-010>016-019>021-085-231800-
WEST


CITY           SKY/WX    TMP DP  RH WIND       PRES   REMARKS
NIAGARA FALLS  CLOUDY    58  51  78 SW16G28   29.67S
BUFFALO        CLOUDY    55  50  83 W20G28    29.68R
DUNKIRK        CLOUDY    62  52  69 W18G26    29.71R
JAMESTOWN      CLOUDY    59  52  77 SW18G28   29.72F
WELLSVILLE     PTSUNNY   60  52  74 SW14G21   29.75F
ROCHESTER      CLOUDY    66  53  63 W17G28    29.65F
PENN YAN       SUNNY     65  49  56 SW17      29.68F
$$

             KEY
       WCI = WIND CHILL INDEX
       VSB = VISIBILITY
       HX  = HEAT INDEX
$$



USA.gov is the U.S. government's official web portal to all federal, state and local government web resources and services.